Location: Écuvilly
(49.6505°N, 2.9206°E)
Time: 06:56:11
(UTC+00:00)

Cosmos 2026 Rocket - Pass Details

Date: 17 November 2025
Orbit: 938 x 1000 km, 82.9° (Epoch: 10 December)

Event Time Altitude Azimuth Distance (km) Brightness Sun altitude
Rises 17:49:20 0° 354° (N) 3,614 6.9 -17.0°
Reaches altitude 10° 17:51:59 10° 2° (N) 2,669 6.2 -17.4°
Maximum altitude 17:57:43 41° 72° (ENE) 1,341 4.2 -18.4°
Drops below altitude 10° 18:03:28 10° 142° (SE) 2,681 6.0 -19.3°
Sets 18:06:08 0° 149° (SSE) 3,631 6.8 -19.7°
